Location: Hartford
(41.7640°N, 72.6860°W)
Time: 02:37:33
(UTC-05:00)

ISS - Visible Passes

Search period start: 28 February 2017 00:00
Search period end: 10 March 2017 00:00
Orbit: 399 x 408 km, 51.6° (Epoch: 28 February)

Date Brightness Start Highest point End Pass type
(mag) Time Alt. Az. Time Alt. Az. Time Alt. Az.
28 Feb -0.2 05:24:03 10° SSE 05:25:21 12° SE 05:26:39 10° ESE visible
02 Mar -1.3 05:13:33 10° SSW 05:16:23 27° SE 05:19:14 10° ENE visible
03 Mar -0.6 04:22:54 13° SSE 04:23:59 15° SE 04:25:54 10° E visible
04 Mar -3.0 05:05:34 22° SW 05:07:29 66° SE 05:10:47 10° ENE visible
05 Mar -1.7 04:15:25 32° ESE 04:15:25 32° ESE 04:17:59 10° ENE visible
05 Mar -2.4 05:48:22 10° W 05:51:25 34° NNW 05:54:28 10° NE visible
06 Mar -3.1 04:57:45 38° W 04:58:41 55° NNW 05:01:57 10° NE visible
07 Mar -1.6 04:07:20 34° ENE 04:07:20 34° ENE 04:09:20 10° ENE visible
07 Mar -1.6 05:40:10 10° WNW 05:42:49 22° NNW 05:45:28 10° NE visible
08 Mar -2.2 04:49:28 28° NW 04:49:58 30° NNW 04:52:56 10° NE visible
09 Mar -1.1 03:58:53 23° NE 03:58:53 23° NE 04:00:23 10° NE visible
09 Mar -1.1 05:32:02 10° NW 05:34:15 17° N 05:36:29 10° NNE visible
